World > North America > United States > South Carolina > Rembert

Rembert, SC Hourly Weather Conditions

Feedback E-mail the Weather

Quick WX

Rembert, SC Weather Maps

°F °C°F °C
Rembert Weather Map
UTC Time: 2/5/2023, 17:57
Your Time:

Rembert, SC Regional Weather

Expires:202302051800;;847766
ASUS42 KCAE 051710
RWRCAE
REGIONAL WEATHER ROUNDUP
NATIONAL WEATHER SERVICE COLUMBIA SC
1200 PM EST SUN FEB 05 2023

NOTE: "FAIR" INDICATES FEW OR NO CLOUDS BELOW 12,000 FEET WITH NO
SIGNIFICANT WEATHER AND/OR OBSTRUCTIONS TO VISIBILITY.

NOT ALL STATIONS ARE QUALITY CONTROLLED BY THE NATIONAL 
WEATHER SERVICE. USE DATA WITH CAUTION...ESPECIALLY 
DEWPOINT OBSERVATIONS.


SCZ001>059-115-116-135>137-GAZ040-063>065-077-051800-
...UPSTATE SOUTH CAROLINA...
  
CITY           SKY/WX    TMP DP  RH WIND       PRES   REMARKS
ANDERSON       MOSUNNY   51  32  48 VRB3      30.30F                  
LIBERTY        MOSUNNY   50  29  44 S6        30.29F                  
SPARTANBURG    PTSUNNY   50  28  43 SW5       30.30F                  
CLEMSON        MOSUNNY   50  27  40 CALM      30.30F                  
GREENVILLE     MOSUNNY   50  27  40 SW8       30.30F                  
GREENWOOD      PTSUNNY   52  29  41 W5        30.32F                  
GREER          MOSUNNY   51  27  39 SW8       30.30F                  
ROCK HILL      CLOUDY    50  29  44 MISG      30.31F                  
LAURENS        CLOUDY    52  30  43 SW3       30.30F                  


...CENTRAL SOUTH CAROLINA...
  
CITY           SKY/WX    TMP DP  RH WIND       PRES   REMARKS
COLUMBIA APT   CLOUDY    49  32  52 N3        30.32F                  
COLUMBIA OWENS CLOUDY    49  31  49 VRB3      30.32F                  
MCENTIRE ANGB  MOSUNNY   49  35  58 NE3       30.29F                  
ORANGEBURG     CLOUDY    50  39  66 NE3       30.30F                  
SUMTER SHAW    CLOUDY    49  34  57 NE6       30.29F                  
AIKEN          PTSUNNY   51  38  60 E5        30.31F                  
BARNWELL       FAIR      50  37  62 NE6       30.30F                  
MANNING        CLOUDY    46  45  93 N5        30.30F                  
CAMDEN         FAIR      48  30  49 CALM      30.31F                  
LANCASTER      CLOUDY    48  30  49 CALM      30.31F                  
WINNSBORO      PTSUNNY   50  32  50 CALM      30.31F                  


...EASTERN AND COASTAL SOUTH CAROLINA...
  
CITY           SKY/WX    TMP DP  RH WIND       PRES   REMARKS
MYRTLE BEACH   LGT RAIN  51  50  96 N9        30.29F                  
N MYRTLE BCH   LGT RAIN  52  44  74 N6        30.29F                  
CONWAY         LGT RAIN  48  46  93 CALM      30.30F                  
MARION         DRIZZLE   43  37  81 N5        30.33F                  
HARTSVILLE     CLOUDY    46  32  57 CALM      30.32F                  
FLORENCE       LGT RAIN  44  43  96 NE3       30.32F FOG              
DARLINGTON     CLOUDY    44  33  65 N3        30.33F                  
CHARLESTON APT CLOUDY    53  50  89 NE6       30.29F                  
MOUNT PLEASANT LGT RAIN  50  50 100 CALM      30.28F                  
WALTERBORO     CLOUDY    59  50  72 NE6       30.29F                  
HILTON HEAD    CLOUDY    59  54  82 NE9       30.29F                  


...EASTERN GEORGIA...
  
CITY           SKY/WX    TMP DP  RH WIND       PRES   REMARKS
AUGUSTA BUSH F CLOUDY    50  38  63 N5        30.31F                  
AUGUSTA DANIEL CLOUDY    51  39  63 N6        30.31F                  
THOMSON        MOSUNNY   50  39  66 NE6       30.31F                  
CLAXTON        FAIR      60  46  57 CALM      30.28F                  
SYLVANIA       CLOUDY    54  44  69 CALM      30.31F                  
STATESBORO     CLOUDY    53  43  69 CALM      30.29F                  
SAVANNAH       CLOUDY    58  47  66 E5        30.28F                  


...SOUTHERN NORTH CAROLINA...
  
CITY           SKY/WX    TMP DP  RH WIND       PRES   REMARKS
CHARLOTTE      PTSUNNY   47  27  45 SW6       30.30F                  
MONROE         CLOUDY    48  28  46 VRB5      30.30F                  
WADESBORO      PTSUNNY   46  28  47 CALM      30.33F                  
ROCKINGHAM     CLOUDY    44  29  55 CALM      30.32F                  
RUTHERFORDTON  PTSUNNY   45  27  49 S3        30.29F                  
ASHEVILLE      PTSUNNY   52  36  54 S16G22    30.23F                  

$$
  

SKY/WX - Weather  TMP - Temperature  DP - Dew Point  RH - Humidity
WIND - Wind Direction/Speed PRES - Barometric Pressure VSB - Visibility
WCI - Wind Chill Index E13G22 Wind - East Wind 13 mph/Gusts of 22 mph

Trending Headlines

Trending Entertainment Headlines

Rembert Radar Loop

Use the map search tool if you want to place a location marker on the radar map...

Rembert Quick Facts

National Two Day Weather Forecast


E-mail the Rembert Weather Forecast

Voice your opinion or tell us about page issues...